Weather in Chekan

Russia / Republic of Tatarstan     54°50′42″N   53°33′31″E
temp.,
°C
wind,
m/s
gust,
m/s
humid.,
%
clouds,
%
prec.,
mm/h
press.,
hPa
HPBL,
m
23 june, wed
wed2300:00+22w397616 0.0 1018207
03:00+19wnw22875 0.0 101831
06:00+24wnw48740 0.0 1018306
09:00+29nw67510 0.0 10171014
12:00+30nnw56495 0.0 10171824
15:00+27nw4758100 0.1 1016363
18:00+20wnw51179100 3.8 1016200
21:00+18wsw2190100 3.8 101815
24 june, thu
thu2400:00+17ese119299 0.0 101811
03:00+17ne11945 0.0 101811
06:00+20e12855 0.0 1019271
09:00+24nne236732 0.0 10191006
12:00+27nne335418 0.0 10181331
15:00+28nne235296 0.0 10181365
18:00+27nw12665 0.0 1017300
21:00+21w2277100 0.5 101613
25 june, fri
fri2500:00+19sw229135 0.8 101622
03:00+18w019311 1.8 101511
06:00+21w23845 0.0 1015291
09:00+25nw33680 0.0 1015850
12:00+28nnw44560 0.0 10141271
15:00+27nnw466735 1.3 10131144
18:00+26nnw25765 0.9 1012433
21:00+22wnw228978 2.0 101213
26 june, sat
sat2600:00+20w1192100 3.3 101212
03:00+20wnw2293100 5.8 101122
06:00+23wnw368620 0.3 1012250
09:00+27nw577354 1.4 1011373
12:00+30nnw565546 0.4 10111496
15:00+30nw665447 0.4 10111737
18:00+26nnw37775 0.9 1011217
21:00+21ssw228735 1.2 101221
27 june, sun
sun2700:00+21ssw118833 0.1 101111
03:00+20wsw11905 0.4 101211
06:00+23n12835 0.9 1012208
09:00+25ene567512 4.3 1012583
12:00+27ne44565 0.3 10131140
15:00+27nne55506 0.3 10131541
18:00+24nne46645 0.0 1014285
21:00+19nne22775 0.0 101413